{"data":{"norad_id":55382,"epoch":"2026-09-20T13:26:30.121440Z","epoch_age_seconds":91446,"freshness":"FRESH","line1":"1 55382U 23013BD  26263.56007085  .00000030  00000+0  10609-4 0  9994","line2":"2 55382  43.0052 297.7987 0001796 276.3745  83.6902 15.27577590201307","mean_motion":15.2757759,"eccentricity":0.0001796,"inclination_deg":43.0052,"raan_deg":297.7987,"arg_perigee_deg":276.3745,"mean_anomaly_deg":83.6902,"bstar":1.0609e-5,"rev_number":20130,"period_min":94.26689743465,"perigee_km":481.82404213722,"apogee_km":484.28858277505,"semimajor_km":6861.1933124561,"source":"CELESTRAK","updated_at":"2026-09-21T09:00:33.212021Z"}}